User: anonymous   Login
Location: Trois-Rivi�res
(46.3500°N, 72.5500°W)
Time: 02:20:24
(UTC-04:00)
Language:

SJ-11-01 - Orbit

View from above orbital plane
View from above orbital plane
View from above satellite
View from above satellite

Ground track
Ground track

The orbit data is extracted from the following two-line orbital elements,

1 36088U 09061A   15213.77270010  .00000150  00000-0  41375-4 0  9997
2 36088 098.2347 259.3763 0010292 241.7249 118.2905 14.59671367304640
Epoch (UTC): 01 August 2015 18:32:41
Eccentricity: 0.0010292
inclination: 98.2347°
perigee height: 687 km
apogee height: 701 km
right ascension of ascending node: 259.3763°
argument of perigee: 241.7249°
revolutions per day: 14.59671367
mean anomaly at epoch: 118.2905°
orbit number at epoch: 30464

The dashed part of the orbit path shows where the satellite is in the earth's shadow,  

DLR